Time,TemperatureF,DewpointF,PressureIn,WindDirection,WindDirectionDegrees,WindSpeedMPH,WindSpeedGustMPH,Humidity,HourlyPrecipIn,Conditions,Clouds,dailyrainin,SoftwareType,DateUTC
2013-03-11 00:00:00,66.7,57.4,30.06,East,99,3.0,8.0,72,0.00,,,0.00,meteohub,2013-03-11 04:00:00,
2013-03-11 00:01:00,66.7,57.4,30.06,East,99,3.0,8.0,72,0.00,,,0.00,meteohub,2013-03-11 04:01:00,
2013-03-11 00:02:00,66.7,57.4,30.06,East,99,5.0,8.0,72,0.00,,,0.00,meteohub,2013-03-11 04:02:00,
2013-03-11 00:05:00,66.7,57.4,30.06,ESE,102,4.0,7.0,72,0.00,,,0.00,meteohub,2013-03-11 04:05:00,
2013-03-11 00:11:00,66.6,57.2,30.06,ESE,103,3.0,7.0,72,0.00,,,0.00,meteohub,2013-03-11 04:11:00,
2013-03-11 00:16:00,66.4,57.4,30.06,ESE,103,3.0,7.0,73,0.00,,,0.00,meteohub,2013-03-11 04:16:00,
2013-03-11 00:21:00,66.0,57.6,30.06,ESE,113,4.0,7.0,74,0.00,,,0.00,meteohub,2013-03-11 04:21:00,
2013-03-11 00:26:00,65.8,57.4,30.06,SE,130,4.0,5.0,74,0.00,,,0.00,meteohub,2013-03-11 04:26:00,
2013-03-11 00:31:00,65.5,57.4,30.06,SE,130,2.0,5.0,75,0.00,,,0.00,meteohub,2013-03-11 04:31:00,
2013-03-11 00:37:00,65.1,57.0,30.06,SE,132,4.0,5.0,75,0.00,,,0.00,meteohub,2013-03-11 04:37:00,
2013-03-11 00:42:00,64.9,56.8,30.06,SE,136,2.0,4.0,75,0.00,,,0.00,meteohub,2013-03-11 04:42:00,
2013-03-11 00:47:00,64.9,57.2,30.06,SE,125,3.0,6.0,76,0.00,,,0.00,meteohub,2013-03-11 04:47:00,
2013-03-11 00:52:00,64.8,57.0,30.06,SE,128,2.0,6.0,76,0.00,,,0.00,meteohub,2013-03-11 04:52:00,
2013-03-11 00:57:00,64.8,57.0,30.06,East,87,5.0,6.0,76,0.00,,,0.00,meteohub,2013-03-11 04:57:00,
2013-03-11 01:02:00,64.6,57.2,30.06,ESE,107,2.0,6.0,77,0.00,,,0.00,meteohub,2013-03-11 05:02:00,
2013-03-11 01:07:00,64.6,57.2,30.06,ESE,107,2.0,6.0,77,0.00,,,0.00,meteohub,2013-03-11 05:07:00,
2013-03-11 01:12:00,64.2,56.8,30.06,ESE,107,2.0,5.0,77,0.00,,,0.00,meteohub,2013-03-11 05:12:00,
2013-03-11 01:17:00,64.2,57.2,30.06,ESE,105,2.0,4.0,78,0.00,,,0.00,meteohub,2013-03-11 05:17:00,
2013-03-11 01:22:00,64.0,57.4,30.06,ESE,105,2.0,4.0,79,0.00,,,0.00,meteohub,2013-03-11 05:22:00,
2013-03-11 01:28:00,63.9,57.2,30.06,ESE,105,1.0,3.0,79,0.00,,,0.00,meteohub,2013-03-11 05:28:00,
2013-03-11 01:33:00,63.7,57.4,30.06,ESE,105,2.0,3.0,80,0.00,,,0.00,meteohub,2013-03-11 05:33:00,
2013-03-11 01:38:00,63.5,57.2,30.06,ESE,105,1.0,3.0,80,0.00,,,0.00,meteohub,2013-03-11 05:38:00,
2013-03-11 01:43:00,63.3,57.0,30.06,ESE,105,1.0,3.0,80,0.00,,,0.00,meteohub,2013-03-11 05:43:00,
2013-03-11 01:48:00,63.1,57.2,30.06,ESE,105,1.0,2.0,81,0.00,,,0.00,meteohub,2013-03-11 05:48:00,
2013-03-11 01:54:00,63.0,57.0,30.06,ESE,105,1.0,2.0,81,0.00,,,0.00,meteohub,2013-03-11 05:54:00,
2013-03-11 01:59:00,62.8,57.2,30.06,ESE,105,2.0,2.0,82,0.00,,,0.00,meteohub,2013-03-11 05:59:00,
2013-03-11 02:04:00,62.6,57.0,30.06,ESE,105,1.0,2.0,82,0.00,,,0.00,meteohub,2013-03-11 06:04:00,
2013-03-11 02:09:00,62.4,56.8,30.05,ESE,105,1.0,2.0,82,0.00,,,0.00,meteohub,2013-03-11 06:09:00,
2013-03-11 02:14:00,62.2,57.0,30.05,ESE,105,2.0,3.0,83,0.00,,,0.00,meteohub,2013-03-11 06:14:00,
2013-03-11 02:20:00,62.2,57.0,30.05,ESE,105,2.0,3.0,83,0.00,,,0.00,meteohub,2013-03-11 06:20:00,
2013-03-11 02:25:00,62.2,57.0,30.05,ESE,105,2.0,3.0,83,0.00,,,0.00,meteohub,2013-03-11 06:25:00,
2013-03-11 02:30:00,62.1,56.8,30.04,ESE,105,1.0,3.0,83,0.00,,,0.00,meteohub,2013-03-11 06:30:00,
2013-03-11 02:35:00,62.1,57.2,30.04,ESE,105,1.0,3.0,84,0.00,,,0.00,meteohub,2013-03-11 06:35:00,
2013-03-11 02:40:00,61.9,57.0,30.05,ESE,105,1.0,2.0,84,0.00,,,0.00,meteohub,2013-03-11 06:40:00,
2013-03-11 02:46:00,61.9,57.0,30.04,ESE,105,1.0,2.0,84,0.00,,,0.00,meteohub,2013-03-11 06:46:00,
2013-03-11 02:51:00,61.7,56.8,30.04,ESE,105,2.0,2.0,84,0.00,,,0.00,meteohub,2013-03-11 06:51:00,
2013-03-11 02:57:00,61.5,57.0,30.04,ESE,105,1.0,3.0,85,0.00,,,0.00,meteohub,2013-03-11 06:57:00,
2013-03-11 03:02:00,61.5,57.0,30.04,ESE,105,1.0,3.0,85,0.00,,,0.00,meteohub,2013-03-11 07:02:00,
2013-03-11 03:07:00,61.5,57.0,30.04,ESE,105,2.0,2.0,85,0.00,,,0.00,meteohub,2013-03-11 07:07:00,
2013-03-11 03:12:00,61.3,56.8,30.03,ESE,105,2.0,2.0,85,0.00,,,0.00,meteohub,2013-03-11 07:12:00,
2013-03-11 03:17:00,61.3,57.2,30.03,ESE,105,2.0,3.0,86,0.00,,,0.00,meteohub,2013-03-11 07:17:00,
2013-03-11 03:22:00,61.2,57.0,30.03,ESE,105,2.0,3.0,86,0.00,,,0.00,meteohub,2013-03-11 07:22:00,
2013-03-11 03:27:00,61.2,57.0,30.03,ESE,105,2.0,3.0,86,0.00,,,0.00,meteohub,2013-03-11 07:27:00,
2013-03-11 03:32:00,61.0,57.0,30.02,ESE,105,1.0,2.0,87,0.00,,,0.00,meteohub,2013-03-11 07:32:00,
2013-03-11 03:37:00,61.0,57.0,30.02,ESE,105,2.0,2.0,87,0.00,,,0.00,meteohub,2013-03-11 07:37:00,
2013-03-11 03:42:00,60.8,56.8,30.02,ESE,105,1.0,2.0,87,0.00,,,0.00,meteohub,2013-03-11 07:42:00,
2013-03-11 03:47:00,60.6,56.7,30.01,ESE,105,2.0,3.0,87,0.00,,,0.00,meteohub,2013-03-11 07:47:00,
2013-03-11 03:52:00,60.6,57.0,30.01,ESE,105,1.0,3.0,88,0.00,,,0.00,meteohub,2013-03-11 07:52:00,
2013-03-11 03:57:00,60.6,57.0,30.01,ESE,105,2.0,3.0,88,0.00,,,0.00,meteohub,2013-03-11 07:57:00,
2013-03-11 04:02:00,60.6,57.0,30.01,ESE,105,2.0,3.0,88,0.00,,,0.00,meteohub,2013-03-11 08:02:00,
2013-03-11 04:07:00,60.6,56.7,30.01,ESE,105,1.0,3.0,87,0.00,,,0.00,meteohub,2013-03-11 08:07:00,
2013-03-11 04:13:00,60.6,56.7,30.00,ESE,105,2.0,3.0,87,0.00,,,0.00,meteohub,2013-03-11 08:13:00,
2013-03-11 04:18:00,60.6,56.7,30.00,ESE,105,2.0,3.0,87,0.00,,,0.00,meteohub,2013-03-11 08:18:00,
2013-03-11 04:23:00,60.6,56.7,30.00,ESE,105,0.0,3.0,87,0.00,,,0.00,meteohub,2013-03-11 08:23:00,
2013-03-11 04:28:00,60.6,57.0,30.00,ESE,105,0.0,4.0,88,0.00,,,0.00,meteohub,2013-03-11 08:28:00,
2013-03-11 04:33:00,60.6,57.0,29.99,ESE,105,1.0,4.0,88,0.00,,,0.00,meteohub,2013-03-11 08:33:00,
2013-03-11 04:39:00,60.4,56.8,29.99,ESE,105,2.0,3.0,88,0.00,,,0.00,meteohub,2013-03-11 08:39:00,
2013-03-11 04:44:00,60.4,57.2,29.99,ESE,105,2.0,3.0,89,0.00,,,0.00,meteohub,2013-03-11 08:44:00,
2013-03-11 04:49:00,60.3,57.0,29.99,ESE,105,2.0,3.0,89,0.00,,,0.00,meteohub,2013-03-11 08:49:00,
2013-03-11 04:54:00,60.3,57.0,29.98,ESE,105,3.0,3.0,89,0.00,,,0.00,meteohub,2013-03-11 08:54:00,
2013-03-11 04:59:00,60.1,56.8,29.98,ESE,105,2.0,3.0,89,0.00,,,0.00,meteohub,2013-03-11 08:59:00,
2013-03-11 05:04:00,60.1,56.8,29.98,ESE,105,2.0,3.0,89,0.00,,,0.00,meteohub,2013-03-11 09:04:00,
2013-03-11 05:10:00,60.1,56.8,29.98,ESE,105,1.0,3.0,89,0.00,,,0.00,meteohub,2013-03-11 09:10:00,
2013-03-11 05:15:00,60.1,56.8,29.97,ESE,105,1.0,3.0,89,0.00,,,0.00,meteohub,2013-03-11 09:15:00,
2013-03-11 05:20:00,60.1,56.8,29.97,ESE,105,2.0,3.0,89,0.00,,,0.00,meteohub,2013-03-11 09:20:00,
2013-03-11 05:25:00,60.1,56.8,29.97,ESE,105,2.0,3.0,89,0.00,,,0.00,meteohub,2013-03-11 09:25:00,
2013-03-11 05:30:00,60.3,57.4,29.98,ESE,105,2.0,4.0,90,0.00,,,0.00,meteohub,2013-03-11 09:30:00,
2013-03-11 05:35:00,60.3,57.0,29.97,ESE,105,1.0,4.0,89,0.00,,,0.00,meteohub,2013-03-11 09:35:00,
2013-03-11 05:40:00,60.4,57.6,29.97,ESE,105,2.0,4.0,90,0.00,,,0.00,meteohub,2013-03-11 09:40:00,
2013-03-11 05:45:00,60.4,57.2,29.97,ESE,105,3.0,4.0,89,0.00,,,0.00,meteohub,2013-03-11 09:45:00,
2013-03-11 05:51:00,60.6,57.4,29.97,ESE,105,3.0,4.0,89,0.00,,,0.00,meteohub,2013-03-11 09:51:00,
2013-03-11 05:56:00,60.6,57.4,29.97,ESE,105,3.0,4.0,89,0.00,,,0.00,meteohub,2013-03-11 09:56:00,
2013-03-11 06:01:00,60.6,57.4,29.97,ESE,105,3.0,4.0,89,0.00,,,0.00,meteohub,2013-03-11 10:01:00,
2013-03-11 06:06:00,60.8,57.6,29.97,ESE,105,3.0,4.0,89,0.00,,,0.00,meteohub,2013-03-11 10:06:00,
2013-03-11 06:12:00,60.8,57.6,29.97,ESE,105,1.0,4.0,89,0.00,,,0.00,meteohub,2013-03-11 10:12:00,
2013-03-11 06:17:00,61.0,57.7,29.98,ESE,105,2.0,4.0,89,0.00,,,0.00,meteohub,2013-03-11 10:17:00,
2013-03-11 06:22:00,61.0,57.7,29.98,ESE,103,2.0,4.0,89,0.00,,,0.00,meteohub,2013-03-11 10:22:00,
2013-03-11 06:27:00,61.2,57.9,29.97,SE,142,2.0,5.0,89,0.00,,,0.00,meteohub,2013-03-11 10:27:00,
2013-03-11 06:32:00,61.2,57.9,29.97,ESE,121,3.0,5.0,89,0.00,,,0.00,meteohub,2013-03-11 10:32:00,
2013-03-11 06:37:00,61.3,57.7,29.97,SE,125,3.0,7.0,88,0.00,,,0.00,meteohub,2013-03-11 10:37:00,
2013-03-11 06:43:00,61.3,57.7,29.98,SE,140,3.0,7.0,88,0.00,,,0.00,meteohub,2013-03-11 10:43:00,
2013-03-11 06:48:00,61.3,57.7,29.98,SE,140,2.0,7.0,88,0.00,,,0.00,meteohub,2013-03-11 10:48:00,
2013-03-11 06:53:00,61.3,57.7,29.98,SE,140,1.0,5.0,88,0.00,,,0.00,meteohub,2013-03-11 10:53:00,
2013-03-11 06:59:00,61.3,57.7,29.98,ESE,108,3.0,5.0,88,0.00,,,0.00,meteohub,2013-03-11 10:59:00,
2013-03-11 07:04:00,61.3,57.7,29.98,ESE,108,2.0,5.0,88,0.00,,,0.00,meteohub,2013-03-11 11:04:00,
2013-03-11 07:09:00,61.5,57.9,29.98,East,90,3.0,5.0,88,0.00,,,0.00,meteohub,2013-03-11 11:09:00,
2013-03-11 07:14:00,61.5,57.9,29.99,SE,138,1.0,8.0,88,0.00,,,0.00,meteohub,2013-03-11 11:14:00,
2013-03-11 07:19:00,61.5,57.9,29.99,SE,131,2.0,8.0,88,0.00,,,0.00,meteohub,2013-03-11 11:19:00,
2013-03-11 07:25:00,61.5,57.9,29.99,SE,129,4.0,6.0,88,0.00,,,0.00,meteohub,2013-03-11 11:25:00,
2013-03-11 07:30:00,61.5,57.9,29.99,ESE,119,3.0,6.0,88,0.00,,,0.00,meteohub,2013-03-11 11:30:00,
2013-03-11 07:35:00,61.7,58.1,29.99,ESE,119,2.0,5.0,88,0.00,,,0.00,meteohub,2013-03-11 11:35:00,
2013-03-11 07:41:00,61.7,58.1,29.99,ESE,119,2.0,5.0,88,0.00,,,0.00,meteohub,2013-03-11 11:41:00,
2013-03-11 07:46:00,61.7,58.1,29.99,ESE,119,2.0,5.0,88,0.00,,,0.00,meteohub,2013-03-11 11:46:00,
2013-03-11 07:51:00,61.5,57.9,29.99,ESE,119,2.0,4.0,88,0.00,,,0.00,meteohub,2013-03-11 11:51:00,
2013-03-11 07:56:00,61.5,58.3,29.99,ESE,119,2.0,4.0,89,0.00,,,0.00,meteohub,2013-03-11 11:56:00,
2013-03-11 08:02:00,61.7,58.5,29.99,ESE,119,2.0,4.0,89,0.00,,,0.00,meteohub,2013-03-11 12:02:00,
2013-03-11 08:07:00,61.9,58.6,29.99,ESE,117,4.0,4.0,89,0.00,,,0.00,meteohub,2013-03-11 12:07:00,
2013-03-11 08:12:00,62.1,58.8,29.98,SE,133,3.0,5.0,89,0.00,,,0.00,meteohub,2013-03-11 12:12:00,
2013-03-11 08:17:00,62.1,58.5,29.99,ESE,123,3.0,6.0,88,0.00,,,0.00,meteohub,2013-03-11 12:17:00,
2013-03-11 08:22:00,62.2,58.6,29.99,ESE,121,3.0,6.0,88,0.00,,,0.00,meteohub,2013-03-11 12:22:00,
2013-03-11 08:27:00,62.4,58.8,29.99,SE,136,3.0,6.0,88,0.00,,,0.00,meteohub,2013-03-11 12:27:00,
2013-03-11 08:32:00,62.8,58.8,29.99,SE,140,3.0,5.0,87,0.00,,,0.00,meteohub,2013-03-11 12:32:00,
2013-03-11 08:38:00,63.0,59.0,29.99,ESE,123,4.0,7.0,87,0.00,,,0.00,meteohub,2013-03-11 12:38:00,
2013-03-11 08:43:00,63.1,59.2,29.99,ESE,114,2.0,8.0,87,0.00,,,0.00,meteohub,2013-03-11 12:43:00,
2013-03-11 08:48:00,63.3,59.0,29.99,ESE,113,4.0,8.0,86,0.00,,,0.00,meteohub,2013-03-11 12:48:00,
2013-03-11 08:53:00,63.7,59.0,29.99,ESE,105,5.0,8.0,85,0.00,,,0.00,meteohub,2013-03-11 12:53:00,
2013-03-11 08:59:00,64.0,59.4,29.99,ESE,114,3.0,9.0,85,0.00,,,0.00,meteohub,2013-03-11 12:59:00,
2013-03-11 09:04:00,64.8,59.9,29.99,ESE,106,4.0,9.0,84,0.00,,,0.00,meteohub,2013-03-11 13:04:00,
2013-03-11 09:09:00,65.5,59.9,29.99,ESE,103,5.0,9.0,82,0.00,,,0.00,meteohub,2013-03-11 13:09:00,
2013-03-11 09:15:00,65.8,59.9,29.99,ENE,74,4.0,7.0,81,0.00,,,0.00,meteohub,2013-03-11 13:15:00,
2013-03-11 09:20:00,66.6,60.6,29.99,ESE,117,3.0,7.0,81,0.00,,,0.00,meteohub,2013-03-11 13:20:00,
2013-03-11 09:25:00,66.7,60.1,29.99,East,84,6.0,7.0,79,0.00,,,0.00,meteohub,2013-03-11 13:25:00,
2013-03-11 09:30:00,67.5,60.4,29.99,ESE,120,4.0,8.0,78,0.00,,,0.00,meteohub,2013-03-11 13:30:00,
2013-03-11 09:36:00,67.6,59.7,29.99,ESE,116,7.0,9.0,76,0.00,,,0.00,meteohub,2013-03-11 13:36:00,
2013-03-11 09:41:00,67.8,59.5,29.99,ESE,114,8.0,9.0,75,0.00,,,0.00,meteohub,2013-03-11 13:41:00,
2013-03-11 09:46:00,68.2,59.5,29.99,SE,126,7.0,9.0,74,0.00,,,0.00,meteohub,2013-03-11 13:46:00,
2013-03-11 09:51:00,68.2,59.5,29.99,SE,126,4.0,11.0,74,0.00,,,0.00,meteohub,2013-03-11 13:51:00,
2013-03-11 09:57:00,68.5,59.5,29.99,East,96,10.0,11.0,73,0.00,,,0.00,meteohub,2013-03-11 13:57:00,
2013-03-11 10:02:00,68.4,59.7,29.99,ESE,109,7.0,11.0,74,0.00,,,0.00,meteohub,2013-03-11 14:02:00,
2013-03-11 10:07:00,68.4,59.4,29.99,East,101,7.0,11.0,73,0.00,,,0.00,meteohub,2013-03-11 14:07:00,
2013-03-11 10:12:00,68.5,59.5,29.99,ENE,73,5.0,11.0,73,0.00,,,0.00,meteohub,2013-03-11 14:12:00,
2013-03-11 10:17:00,68.7,59.7,29.99,SE,130,6.0,10.0,73,0.00,,,0.00,meteohub,2013-03-11 14:17:00,
2013-03-11 10:23:00,69.1,60.1,29.99,ESE,123,5.0,10.0,73,0.00,,,0.00,meteohub,2013-03-11 14:23:00,
2013-03-11 10:28:00,69.4,60.1,29.99,ESE,120,4.0,10.0,72,0.00,,,0.00,meteohub,2013-03-11 14:28:00,
2013-03-11 10:33:00,70.2,59.9,29.99,ESE,119,5.0,10.0,70,0.00,,,0.00,meteohub,2013-03-11 14:33:00,
2013-03-11 10:38:00,70.5,60.3,29.99,ESE,111,4.0,9.0,70,0.00,,,0.00,meteohub,2013-03-11 14:38:00,
2013-03-11 10:44:00,71.1,60.4,29.99,SE,124,7.0,9.0,69,0.00,,,0.00,meteohub,2013-03-11 14:44:00,
2013-03-11 10:49:00,71.6,60.8,29.99,SE,130,4.0,10.0,69,0.00,,,0.00,meteohub,2013-03-11 14:49:00,
2013-03-11 10:54:00,72.0,60.8,29.99,East,101,6.0,10.0,68,0.00,,,0.00,meteohub,2013-03-11 14:54:00,
2013-03-11 10:59:00,72.3,60.8,29.99,ESE,123,4.0,10.0,67,0.00,,,0.00,meteohub,2013-03-11 14:59:00,
2013-03-11 11:04:00,72.7,61.2,29.99,East,87,7.0,8.0,67,0.00,,,0.00,meteohub,2013-03-11 15:04:00,
2013-03-11 11:09:00,72.7,61.2,29.99,East,101,6.0,9.0,67,0.00,,,0.00,meteohub,2013-03-11 15:09:00,
2013-03-11 11:15:00,72.7,61.2,29.99,East,99,3.0,9.0,67,0.00,,,0.00,meteohub,2013-03-11 15:15:00,
2013-03-11 11:20:00,73.0,61.5,29.99,SSE,147,1.0,8.0,67,0.00,,,0.00,meteohub,2013-03-11 15:20:00,
2013-03-11 11:25:00,73.8,61.7,29.99,SE,130,5.0,9.0,66,0.00,,,0.00,meteohub,2013-03-11 15:25:00,
2013-03-11 11:30:00,73.9,61.3,29.99,East,98,6.0,9.0,65,0.00,,,0.00,meteohub,2013-03-11 15:30:00,
2013-03-11 11:36:00,73.9,61.9,30.00,East,86,5.0,8.0,66,0.00,,,0.00,meteohub,2013-03-11 15:36:00,
2013-03-11 11:41:00,74.5,61.9,30.01,ESE,114,2.0,9.0,65,0.00,,,0.00,meteohub,2013-03-11 15:41:00,
2013-03-11 11:47:00,74.8,61.9,30.01,SSE,148,3.0,9.0,64,0.00,,,0.00,meteohub,2013-03-11 15:47:00,
2013-03-11 11:52:00,74.8,61.9,30.01,SE,124,3.0,9.0,64,0.00,,,0.00,meteohub,2013-03-11 15:52:00,
2013-03-11 11:57:00,74.8,61.3,30.01,SE,136,5.0,9.0,63,0.00,,,0.00,meteohub,2013-03-11 15:57:00,
2013-03-11 12:02:00,74.8,61.9,30.02,ESE,115,2.0,9.0,64,0.00,,,0.00,meteohub,2013-03-11 16:02:00,
2013-03-11 12:07:00,74.7,61.2,30.02,SE,142,2.0,8.0,63,0.00,,,0.00,meteohub,2013-03-11 16:07:00,
2013-03-11 12:12:00,75.0,61.2,30.02,SE,140,2.0,8.0,62,0.00,,,0.00,meteohub,2013-03-11 16:12:00,
2013-03-11 12:18:00,75.7,61.3,30.01,ESE,113,7.0,8.0,61,0.00,,,0.00,meteohub,2013-03-11 16:18:00,
2013-03-11 12:23:00,76.5,61.5,30.01,SSE,157,4.0,8.0,60,0.00,,,0.00,meteohub,2013-03-11 16:23:00,
2013-03-11 12:28:00,76.6,61.2,30.01,ESE,119,1.0,8.0,59,0.00,,,0.00,meteohub,2013-03-11 16:28:00,
2013-03-11 12:33:00,76.8,61.0,30.01,ESE,119,4.0,8.0,58,0.00,,,0.00,meteohub,2013-03-11 16:33:00,
2013-03-11 12:38:00,77.2,60.3,30.01,South,182,1.0,7.0,56,0.00,,,0.00,meteohub,2013-03-11 16:38:00,
2013-03-11 12:44:00,77.5,60.6,30.01,SSE,167,2.0,7.0,56,0.00,,,0.00,meteohub,2013-03-11 16:44:00,
2013-03-11 12:49:00,77.7,60.3,30.01,SE,136,3.0,7.0,55,0.00,,,0.00,meteohub,2013-03-11 16:49:00,
2013-03-11 12:54:00,77.7,59.7,30.01,SW,230,2.0,7.0,54,0.00,,,0.00,meteohub,2013-03-11 16:54:00,
2013-03-11 13:00:00,77.7,60.3,30.00,SSE,148,4.0,7.0,55,0.00,,,0.00,meteohub,2013-03-11 17:00:00,
2013-03-11 13:05:00,77.7,59.7,30.01,WSW,248,3.0,7.0,54,0.00,,,0.00,meteohub,2013-03-11 17:05:00,
2013-03-11 13:10:00,77.9,59.9,30.00,SE,139,4.0,13.0,54,0.00,,,0.00,meteohub,2013-03-11 17:10:00,
2013-03-11 13:16:00,78.3,59.7,30.00,SSE,158,3.0,13.0,53,0.00,,,0.00,meteohub,2013-03-11 17:16:00,
2013-03-11 13:21:00,78.4,59.9,29.99,SSW,210,3.0,13.0,53,0.00,,,0.00,meteohub,2013-03-11 17:21:00,
2013-03-11 13:27:00,78.8,59.2,30.00,SSE,157,2.0,9.0,51,0.00,,,0.00,meteohub,2013-03-11 17:27:00,
2013-03-11 13:32:00,79.0,60.4,30.00,SW,219,3.0,7.0,53,0.00,,,0.00,meteohub,2013-03-11 17:32:00,
2013-03-11 13:37:00,79.2,60.1,29.99,SE,146,3.0,7.0,52,0.00,,,0.00,meteohub,2013-03-11 17:37:00,
2013-03-11 13:42:00,79.2,60.6,29.99,West,268,3.0,10.0,53,0.00,,,0.00,meteohub,2013-03-11 17:42:00,
2013-03-11 13:47:00,79.3,61.2,29.99,SE,132,2.0,10.0,54,0.00,,,0.00,meteohub,2013-03-11 17:47:00,
2013-03-11 13:52:00,79.5,60.8,29.99,SSE,147,1.0,9.0,53,0.00,,,0.00,meteohub,2013-03-11 17:52:00,
2013-03-11 13:57:00,79.5,59.7,29.98,SSW,212,1.0,10.0,51,0.00,,,0.00,meteohub,2013-03-11 17:57:00,
2013-03-11 14:02:00,79.5,59.7,29.98,South,178,4.0,10.0,51,0.00,,,0.00,meteohub,2013-03-11 18:02:00,
2013-03-11 14:07:00,78.8,59.7,29.98,SSE,159,4.0,10.0,52,0.00,,,0.00,meteohub,2013-03-11 18:07:00,
2013-03-11 14:12:00,78.4,59.9,29.97,SE,142,3.0,11.0,53,0.00,,,0.00,meteohub,2013-03-11 18:12:00,
2013-03-11 14:17:00,78.3,59.2,29.97,SSW,194,3.0,11.0,52,0.00,,,0.00,meteohub,2013-03-11 18:17:00,
2013-03-11 14:22:00,78.3,59.7,29.97,West,261,5.0,11.0,53,0.00,,,0.00,meteohub,2013-03-11 18:22:00,
2013-03-11 14:28:00,78.4,59.4,29.96,South,178,1.0,11.0,52,0.00,,,0.00,meteohub,2013-03-11 18:28:00,
2013-03-11 14:33:00,78.3,58.6,29.96,South,182,3.0,11.0,51,0.00,,,0.00,meteohub,2013-03-11 18:33:00,
2013-03-11 14:39:00,77.9,58.8,29.96,South,184,3.0,11.0,52,0.00,,,0.00,meteohub,2013-03-11 18:39:00,
2013-03-11 14:44:00,78.4,58.8,29.96,ENE,74,4.0,9.0,51,0.00,,,0.00,meteohub,2013-03-11 18:44:00,
2013-03-11 14:49:00,78.6,58.5,29.96,SW,227,1.0,9.0,50,0.00,,,0.00,meteohub,2013-03-11 18:49:00,
2013-03-11 14:54:00,78.6,58.5,29.95,SE,126,3.0,9.0,50,0.00,,,0.00,meteohub,2013-03-11 18:54:00,
2013-03-11 15:00:00,79.3,58.5,29.95,SSW,205,4.0,7.0,49,0.00,,,0.00,meteohub,2013-03-11 19:00:00,
2013-03-11 15:05:00,80.2,59.4,29.95,SSE,159,2.0,11.0,49,0.00,,,0.00,meteohub,2013-03-11 19:05:00,
2013-03-11 15:10:00,80.1,58.6,29.94,South,175,4.0,11.0,48,0.00,,,0.00,meteohub,2013-03-11 19:10:00,
2013-03-11 15:15:00,80.2,58.8,29.94,SE,126,2.0,9.0,48,0.00,,,0.00,meteohub,2013-03-11 19:15:00,
2013-03-11 15:21:00,80.4,58.3,29.94,ESE,111,4.0,9.0,47,0.00,,,0.00,meteohub,2013-03-11 19:21:00,
2013-03-11 15:26:00,80.2,58.8,29.94,South,182,3.0,8.0,48,0.00,,,0.00,meteohub,2013-03-11 19:26:00,
2013-03-11 15:31:00,79.2,59.0,29.93,SSE,163,4.0,8.0,50,0.00,,,0.00,meteohub,2013-03-11 19:31:00,
2013-03-11 15:36:00,78.3,58.6,29.93,SSW,202,2.0,8.0,51,0.00,,,0.00,meteohub,2013-03-11 19:36:00,
2013-03-11 15:41:00,77.7,59.7,29.93,SW,229,6.0,8.0,54,0.00,,,0.00,meteohub,2013-03-11 19:41:00,
2013-03-11 15:47:00,77.9,59.9,29.92,South,190,2.0,9.0,54,0.00,,,0.00,meteohub,2013-03-11 19:47:00,
2013-03-11 15:52:00,78.3,59.7,29.91,SSE,149,4.0,9.0,53,0.00,,,0.00,meteohub,2013-03-11 19:52:00,
2013-03-11 15:57:00,78.4,59.9,29.92,SSE,164,2.0,9.0,53,0.00,,,0.00,meteohub,2013-03-11 19:57:00,
2013-03-11 16:02:00,78.6,59.5,29.91,South,182,2.0,8.0,52,0.00,,,0.00,meteohub,2013-03-11 20:02:00,
2013-03-11 16:07:00,78.6,59.5,29.92,SSE,153,2.0,9.0,52,0.00,,,0.00,meteohub,2013-03-11 20:07:00,
2013-03-11 16:12:00,78.4,59.4,29.93,SE,144,2.0,9.0,52,0.00,,,0.00,meteohub,2013-03-11 20:12:00,
2013-03-11 16:18:00,78.6,60.1,29.93,WSW,248,2.0,9.0,53,0.00,,,0.00,meteohub,2013-03-11 20:18:00,
2013-03-11 16:23:00,78.8,59.7,29.93,SSW,213,3.0,9.0,52,0.00,,,0.00,meteohub,2013-03-11 20:23:00,
2013-03-11 16:28:00,78.4,59.4,29.92,SSE,151,5.0,8.0,52,0.00,,,0.00,meteohub,2013-03-11 20:28:00,
2013-03-11 16:33:00,77.9,58.8,29.93,SSE,158,3.0,8.0,52,0.00,,,0.00,meteohub,2013-03-11 20:33:00,
2013-03-11 16:38:00,77.4,58.8,29.93,ESE,111,2.0,8.0,53,0.00,,,0.00,meteohub,2013-03-11 20:38:00,
2013-03-11 16:43:00,77.5,58.5,29.93,East,90,6.0,7.0,52,0.00,,,0.00,meteohub,2013-03-11 20:43:00,
2013-03-11 16:48:00,77.7,58.6,29.92,SE,133,3.0,6.0,52,0.00,,,0.00,meteohub,2013-03-11 20:48:00,
2013-03-11 16:54:00,77.4,58.3,29.92,West,267,2.0,8.0,52,0.00,,,0.00,meteohub,2013-03-11 20:54:00,
2013-03-11 16:59:00,76.6,58.8,29.92,SSE,156,0.0,8.0,54,0.00,,,0.00,meteohub,2013-03-11 20:59:00,
2013-03-11 17:04:00,75.9,58.1,29.92,SW,229,3.0,8.0,54,0.00,,,0.00,meteohub,2013-03-11 21:04:00,
2013-03-11 17:09:00,75.6,58.8,29.92,SSW,200,5.0,7.0,56,0.00,,,0.00,meteohub,2013-03-11 21:09:00,
2013-03-11 17:14:00,75.7,58.5,29.92,SSE,168,2.0,7.0,55,0.00,,,0.00,meteohub,2013-03-11 21:14:00,
2013-03-11 17:19:00,76.1,58.3,29.91,SSE,149,2.0,9.0,54,0.00,,,0.00,meteohub,2013-03-11 21:19:00,
2013-03-11 17:25:00,75.9,58.1,29.91,SSW,210,2.0,9.0,54,0.00,,,0.00,meteohub,2013-03-11 21:25:00,
2013-03-11 17:30:00,75.6,58.8,29.91,SE,144,2.0,7.0,56,0.00,,,0.00,meteohub,2013-03-11 21:30:00,
2013-03-11 17:36:00,75.0,58.3,29.91,SSW,213,1.0,7.0,56,0.00,,,0.00,meteohub,2013-03-11 21:36:00,
2013-03-11 17:41:00,74.8,58.6,29.91,SSE,148,5.0,8.0,57,0.00,,,0.00,meteohub,2013-03-11 21:41:00,
2013-03-11 17:47:00,74.7,59.4,29.91,West,262,2.0,8.0,59,0.00,,,0.00,meteohub,2013-03-11 21:47:00,
2013-03-11 17:52:00,74.7,59.4,29.91,East,94,5.0,8.0,59,0.00,,,0.00,meteohub,2013-03-11 21:52:00,
2013-03-11 17:57:00,74.5,59.7,29.92,West,266,5.0,7.0,60,0.00,,,0.00,meteohub,2013-03-11 21:57:00,
2013-03-11 18:02:00,74.1,59.7,29.92,South,181,2.0,8.0,61,0.00,,,0.00,meteohub,2013-03-11 22:02:00,
2013-03-11 18:07:00,73.9,59.7,29.92,SSW,200,3.0,8.0,61,0.00,,,0.00,meteohub,2013-03-11 22:07:00,
2013-03-11 18:12:00,73.8,59.9,29.92,WNW,283,0.0,8.0,62,0.00,,,0.00,meteohub,2013-03-11 22:12:00,
2013-03-11 18:17:00,73.8,59.9,29.92,South,169,2.0,7.0,62,0.00,,,0.00,meteohub,2013-03-11 22:17:00,
2013-03-11 18:22:00,73.2,59.9,29.91,SSW,205,3.0,5.0,63,0.00,,,0.00,meteohub,2013-03-11 22:22:00,
2013-03-11 18:27:00,73.0,59.7,29.91,SE,130,5.0,7.0,63,0.00,,,0.00,meteohub,2013-03-11 22:27:00,
2013-03-11 18:32:00,72.7,59.7,29.91,SE,137,1.0,7.0,64,0.00,,,0.00,meteohub,2013-03-11 22:32:00,
2013-03-11 18:37:00,72.3,59.9,29.90,SE,135,3.0,5.0,65,0.00,,,0.00,meteohub,2013-03-11 22:37:00,
2013-03-11 18:43:00,72.1,59.7,29.89,ESE,119,8.0,8.0,65,0.00,,,0.00,meteohub,2013-03-11 22:43:00,
2013-03-11 18:48:00,72.1,60.1,29.89,SSW,199,3.0,11.0,66,0.00,,,0.00,meteohub,2013-03-11 22:48:00,
2013-03-11 18:53:00,72.0,59.9,29.88,SSE,163,2.0,11.0,66,0.00,,,0.00,meteohub,2013-03-11 22:53:00,
2013-03-11 18:58:00,72.0,59.9,29.87,SSE,147,2.0,11.0,66,0.00,,,0.00,meteohub,2013-03-11 22:58:00,
2013-03-11 19:03:00,72.0,59.9,29.86,SE,138,3.0,12.0,66,0.00,,,0.00,meteohub,2013-03-11 23:03:00,
2013-03-11 19:09:00,72.0,59.9,29.86,SE,136,2.0,12.0,66,0.00,,,0.00,meteohub,2013-03-11 23:09:00,
2013-03-11 19:14:00,72.0,59.9,29.85,SE,136,3.0,7.0,66,0.00,,,0.00,meteohub,2013-03-11 23:14:00,
2013-03-11 19:19:00,71.8,59.7,29.84,SE,137,6.0,6.0,66,0.00,,,0.00,meteohub,2013-03-11 23:19:00,
2013-03-11 19:24:00,71.8,60.3,29.85,SSW,198,3.0,8.0,67,0.00,,,0.00,meteohub,2013-03-11 23:24:00,
2013-03-11 19:29:00,71.6,60.1,29.85,SE,134,1.0,10.0,67,0.00,,,0.00,meteohub,2013-03-11 23:29:00,
2013-03-11 19:35:00,71.4,60.3,29.86,ESE,122,2.0,11.0,68,0.00,,,0.00,meteohub,2013-03-11 23:35:00,
2013-03-11 19:40:00,71.2,60.1,29.86,SE,136,4.0,11.0,68,0.00,,,0.00,meteohub,2013-03-11 23:40:00,
2013-03-11 19:45:00,71.2,60.6,29.87,SW,219,2.0,7.0,69,0.00,,,0.00,meteohub,2013-03-11 23:45:00,
2013-03-11 19:50:00,71.1,60.4,29.87,SE,139,2.0,7.0,69,0.00,,,0.00,meteohub,2013-03-11 23:50:00,
2013-03-11 19:55:00,70.9,60.3,29.87,SE,139,0.0,6.0,69,0.00,,,0.00,meteohub,2013-03-11 23:55:00,
2013-03-11 20:01:00,70.9,60.3,29.87,South,179,3.0,4.0,69,0.00,,,0.00,meteohub,2013-03-12 00:01:00,
2013-03-11 20:06:00,70.9,60.3,29.87,SSW,192,3.0,8.0,69,0.00,,,0.00,meteohub,2013-03-12 00:06:00,
2013-03-11 20:11:00,70.9,60.3,29.87,SSE,163,1.0,8.0,69,0.00,,,0.00,meteohub,2013-03-12 00:11:00,
2013-03-11 20:16:00,70.7,60.4,29.87,SE,133,1.0,6.0,70,0.00,,,0.00,meteohub,2013-03-12 00:16:00,
2013-03-11 20:22:00,70.5,60.3,29.87,West,271,1.0,10.0,70,0.00,,,0.00,meteohub,2013-03-12 00:22:00,
2013-03-11 20:27:00,70.3,60.4,29.87,SE,146,1.0,10.0,71,0.00,,,0.00,meteohub,2013-03-12 00:27:00,
2013-03-11 20:33:00,70.3,60.4,29.88,SSE,154,2.0,10.0,71,0.00,,,0.00,meteohub,2013-03-12 00:33:00,
2013-03-11 20:38:00,70.3,60.8,29.88,SSE,163,1.0,8.0,72,0.00,,,0.00,meteohub,2013-03-12 00:38:00,
2013-03-11 20:43:00,70.2,60.6,29.88,SSE,147,2.0,8.0,72,0.00,,,0.00,meteohub,2013-03-12 00:43:00,
2013-03-11 20:48:00,70.2,60.6,29.88,SE,130,2.0,6.0,72,0.00,,,0.00,meteohub,2013-03-12 00:48:00,
2013-03-11 20:53:00,70.0,60.6,29.87,SE,132,1.0,6.0,72,0.00,,,0.00,meteohub,2013-03-12 00:53:00,
2013-03-11 20:59:00,70.0,60.6,29.87,SE,143,1.0,6.0,72,0.00,,,0.00,meteohub,2013-03-12 00:59:00,
2013-03-11 21:04:00,70.0,60.6,29.87,ESE,115,1.0,8.0,72,0.00,,,0.00,meteohub,2013-03-12 01:04:00,
2013-03-11 21:09:00,70.0,60.6,29.87,SE,126,1.0,8.0,72,0.00,,,0.00,meteohub,2013-03-12 01:09:00,
2013-03-11 21:14:00,70.0,60.6,29.87,SE,136,4.0,8.0,72,0.00,,,0.00,meteohub,2013-03-12 01:14:00,
2013-03-11 21:19:00,70.0,60.6,29.87,SE,132,1.0,9.0,72,0.00,,,0.00,meteohub,2013-03-12 01:19:00,
2013-03-11 21:25:00,70.0,60.6,29.88,South,172,2.0,9.0,72,0.00,,,0.00,meteohub,2013-03-12 01:25:00,
2013-03-11 21:30:00,70.0,60.6,29.88,SSE,157,3.0,9.0,72,0.00,,,0.00,meteohub,2013-03-12 01:30:00,
2013-03-11 21:35:00,70.0,60.6,29.88,SSE,160,0.0,10.0,72,0.00,,,0.00,meteohub,2013-03-12 01:35:00,
2013-03-11 21:40:00,70.0,60.6,29.88,SE,143,1.0,10.0,72,0.00,,,0.00,meteohub,2013-03-12 01:40:00,
2013-03-11 21:45:00,69.8,60.4,29.88,SE,137,2.0,6.0,72,0.00,,,0.00,meteohub,2013-03-12 01:45:00,
2013-03-11 21:50:00,69.6,60.3,29.89,East,100,0.0,6.0,72,0.00,,,0.00,meteohub,2013-03-12 01:50:00,
2013-03-11 21:56:00,69.6,60.6,29.89,SSE,150,2.0,6.0,73,0.00,,,0.00,meteohub,2013-03-12 01:56:00,
2013-03-11 22:01:00,69.6,60.6,29.89,SE,144,1.0,6.0,73,0.00,,,0.00,meteohub,2013-03-12 02:01:00,
2013-03-11 22:06:00,69.6,60.6,29.89,SE,143,0.0,4.0,73,0.00,,,0.00,meteohub,2013-03-12 02:06:00,
2013-03-11 22:11:00,69.6,60.6,29.88,SE,139,1.0,4.0,73,0.00,,,0.00,meteohub,2013-03-12 02:11:00,
2013-03-11 22:17:00,69.6,60.6,29.88,SSW,195,1.0,4.0,73,0.00,,,0.00,meteohub,2013-03-12 02:17:00,
2013-03-11 22:22:00,69.6,61.0,29.88,SE,142,2.0,4.0,74,0.00,,,0.00,meteohub,2013-03-12 02:22:00,
2013-03-11 22:28:00,69.6,61.0,29.87,SSW,211,2.0,7.0,74,0.00,,,0.00,meteohub,2013-03-12 02:28:00,
2013-03-11 22:33:00,69.6,61.0,29.87,SE,129,2.0,9.0,74,0.00,,,0.00,meteohub,2013-03-12 02:33:00,
2013-03-11 22:38:00,69.6,61.0,29.88,SSE,154,1.0,9.0,74,0.00,,,0.00,meteohub,2013-03-12 02:38:00,
2013-03-11 22:43:00,69.6,61.3,29.89,SSE,156,1.0,7.0,75,0.00,,,0.00,meteohub,2013-03-12 02:43:00,
2013-03-11 22:48:00,69.6,61.3,29.89,South,170,1.0,9.0,75,0.00,,,0.00,meteohub,2013-03-12 02:48:00,
2013-03-11 22:54:00,69.6,61.3,29.88,South,190,2.0,9.0,75,0.00,,,0.00,meteohub,2013-03-12 02:54:00,
2013-03-11 22:59:00,69.6,61.3,29.88,SSE,166,2.0,9.0,75,0.00,,,0.00,meteohub,2013-03-12 02:59:00,
2013-03-11 23:04:00,69.6,61.7,29.89,SE,125,2.0,4.0,76,0.00,,,0.00,meteohub,2013-03-12 03:04:00,
2013-03-11 23:09:00,69.6,61.7,29.89,ESE,119,1.0,4.0,76,0.00,,,0.00,meteohub,2013-03-12 03:09:00,
2013-03-11 23:15:00,69.4,61.5,29.89,SSE,167,2.0,4.0,76,0.00,,,0.00,meteohub,2013-03-12 03:15:00,
2013-03-11 23:20:00,69.6,61.7,29.88,SSE,148,3.0,5.0,76,0.00,,,0.00,meteohub,2013-03-12 03:20:00,
2013-03-11 23:25:00,69.6,61.7,29.87,SE,126,2.0,7.0,76,0.00,,,0.00,meteohub,2013-03-12 03:25:00,
2013-03-11 23:30:00,69.6,61.7,29.88,SE,126,2.0,7.0,76,0.00,,,0.00,meteohub,2013-03-12 03:30:00,
2013-03-11 23:36:00,69.6,62.1,29.87,SE,127,1.0,7.0,77,0.00,,,0.00,meteohub,2013-03-12 03:36:00,
2013-03-11 23:41:00,69.6,62.1,29.87,SE,124,1.0,6.0,77,0.00,,,0.00,meteohub,2013-03-12 03:41:00,
2013-03-11 23:46:00,69.6,62.1,29.87,SE,125,2.0,6.0,77,0.00,,,0.00,meteohub,2013-03-12 03:46:00,
2013-03-11 23:52:00,69.6,62.1,29.89,SE,141,1.0,6.0,77,0.00,,,0.00,meteohub,2013-03-12 03:52:00,
2013-03-11 23:57:00,69.4,61.9,29.89,WSW,245,0.0,3.0,77,0.00,,,0.00,meteohub,2013-03-12 03:57:00,